Find Starlink 5458

NORAD ID: 54764 Int'l Des: 2022-175 Owner: SPXS Country: US Constellation: starlink operational
LEOCIRCULAR

当前视图

正在加载3D地球...

About Starlink 5458

Starlink 5458 (NORAD 54764) is a starlink constellation satellite (v1.5) launched Dec 17, 2022 by SPXS of US. It operates in LEO, CIRCULAR orbit with a mass of 305.00 kg.

关于 Starlink 5458

正在加载描述...

即将过境

Passes for default location (London). Set your location on the main map for personalized predictions.

高度历史

Loading altitude history...

两行轨道根数

1 54764U 22175G 26170.78928374 -.00000020 00000-0 16818-4 0 9998
2 54764 53.1596 305.5917 0001139 89.0765 271.0356 15.08834800195338
Epoch: Jun 19, 2026 • Age: 20 hours

当前状态

高度 542.6 km
速度 7.60 km/s
星下点 39.47°N, 43.49°W
发射日期 Dec 17, 2022
运行时间 3.5 years
类型 internet

技术详情

分类 Payload
质量 305.00 kg
干质量 290.00 kg
总质量 305.00 kg
长度 0.20 m
直径 2.80 m
跨度 9.00 m
形状 Box + pan
制造商 SPXS
平台类型 Starlink
阶段状态 In Orbit
所有者/国家 SPXS/US

Most Searched